[[{"header":{"parameterUnit":"m.s-1","parameterCategory":1,"la1":30.2991,"la2":30.254,"lo1":-89.0895,"lo2":-89.0444,"dy":0.0017,"dx":0.0017,"nx":28,"ny":28,"refTime":"2024-08-28T21:00:00:Z","depth":0,"parameterNumber":2,"parameterNumberName":"U-component_of_WINDS"},"data":[0,0,0,0,0,0,0,0,0,0,0,0,0,0,0,0,0,0,0,0,0,0,0,0,0,0,0,0,0,0,0,0,0,0,0,0,0,0,0,0,0,0,0,0,0,0,0,0,0,0,0,0,0,0,0,0,0,0,-3.2284,-3.2285,0,-3.2385,-3.2386,-3.2388,-3.2394,-3.2393,-3.2392,-3.2391,-3.249,-3.2494,-3.2497,0,0,0,0,0,0,0,0,0,0,0,0,0,-3.2093,-3.2097,-3.2284,-3.2285,-3.2286,-3.2385,-3.2386,-3.2388,-3.2394,-3.2393,-3.2392,-3.239,-3.2489,-3.2493,-3.2498,0,0,0,0,0,0,0,0,0,0,0,0,0,-3.2183,-3.2098,-3.2284,-3.2302,-3.2304,-3.2385,-3.2387,-3.2388,-3.2395,-3.2393,-3.2391,-3.239,-3.2487,-3.2493,-3.2498,-3.2566,0,0,-3.2515,-3.2518,0,0,0,0,0,0,0,0,-3.2178,-3.219,-3.2298,-3.2301,-3.2304,-3.2375,-3.2356,-3.2448,-3.2395,-3.236,-3.2391,-3.2389,-3.2453,-3.2461,-3.2484,-3.2571,-3.2575,-3.2516,-3.2519,-3.2521,-3.2523,0,0,0,0,0,0,0,-3.2172,-3.2186,-3.2324,-3.2299,-3.2303,-3.2304,-3.2315,-3.2373,-3.2415,-3.2363,-3.2364,-3.2376,-3.2454,-3.2479,-3.2486,-3.2577,-3.2516,-3.252,-3.2524,-3.2526,-3.2726,-3.2728,0,0,0,0,0,0,-3.2163,-3.2181,-3.2321,-3.2327,-3.2236,-3.2309,-3.2321,-3.2354,-3.2414,-3.2422,-3.2377,-3.2376,-3.247,-3.248,-3.249,-3.2573,-3.2521,-3.2527,-3.253,-3.2724,-3.2726,-3.2728,0,0,0,0,0,0,-3.2159,-3.2175,-3.2316,-3.2254,-3.2272,-3.2314,-3.2351,-3.2357,-3.2381,-3.2425,-3.2432,-3.2395,-3.2469,-3.2482,-3.2548,-3.2577,-3.2529,-3.2534,-3.2721,-3.2724,-3.2727,-3.2741,0,0,0,0,0,0,-3.2153,-3.2174,-3.22,-3.2255,-3.2276,-3.2373,-3.2353,-3.236,-3.2391,-3.239,-3.2443,-3.245,-3.2469,-3.2539,-3.2553,-3.2583,-3.2538,-3.2719,-3.2723,-3.2726,-3.2738,-3.2744,-3.2749,0,0,0,0,0,-3.2146,-3.2199,-3.2202,-3.2218,-3.231,-3.2375,-3.2387,-3.2408,-3.2394,-3.242,-3.2449,-3.2448,-3.2572,-3.2546,-3.2562,-3.2594,-3.2717,-3.2722,-3.2726,-3.2735,-3.2743,-3.2749,0,0,0,0,0,0,-3.2144,-3.2206,-3.221,-3.2282,-3.2324,-3.2376,-3.241,-3.2415,-3.2461,-3.2458,-3.2482,-3.2493,-3.2558,-3.2583,-3.2553,-3.2664,-3.2643,-3.2651,-3.2645,-3.2652,-3.2657,-3.2649,-3.2543,0,0,0,0,0,-3.2153,-3.2202,-3.2253,-3.2311,-3.2332,-3.2368,-3.2397,-3.2411,-3.2454,-3.2471,-3.2504,-3.2545,-3.2594,-3.2624,-3.2671,-3.2743,-3.2754,-3.2773,-3.2778,-3.2783,-3.2788,-3.2828,-3.2837,-3.2743,-3.2743,-3.2743,0,0,-3.2169,-3.2209,-3.2238,-3.2312,-3.2346,-3.2395,-3.2382,-3.2435,-3.2471,-3.2478,-3.2543,-3.2569,-3.2617,-3.2686,-3.2718,-3.2708,-3.2817,-3.2788,-3.2791,-3.2795,-3.2833,-3.2842,-3.285,-3.2746,-3.2745,-3.2745,0,0,-3.2225,-3.2261,-3.2314,-3.2349,-3.2401,-3.2425,-3.2438,-3.2491,-3.2509,-3.2575,-3.2581,-3.2625,-3.2708,-3.2741,-3.2769,-3.2841,-3.2842,-3.2856,-3.2883,-3.2922,-3.2929,-3.2936,-3.296,-3.2969,-3.2862,-3.2862,-3.2862,0,-3.2238,-3.2314,-3.234,-3.2393,-3.2425,-3.2437,-3.249,-3.2522,-3.2586,-3.2608,-3.2597,-3.2702,-3.2735,-3.2812,-3.283,-3.2853,-3.2867,-3.2848,-3.2927,-3.2933,-3.294,-3.2964,-3.2973,-3.2863,-3.2863,-3.2863,-3.2863,0,-3.2328,-3.2381,-3.2417,-3.2481,-3.2517,-3.257,-3.2603,-3.2637,-3.2648,-3.2673,-3.274,-3.2781,-3.2836,-3.2856,-3.2867,-3.2935,-3.2928,-3.2922,-3.2901,-3.295,-3.2972,-3.2982,-3.2865,-3.2864,-3.2864,-3.2864,0,0,-3.2381,-3.2461,-3.2474,-3.2503,-3.2564,-3.2604,-3.2658,-3.2714,-3.2742,-3.2788,-3.2832,-3.2904,-3.2899,-3.2931,-3.2946,-3.298,-3.3034,-3.297,-3.2972,-3.2979,-3.3111,-3.3114,-3.3124,-3.3037,-3.3039,-3.304,-3.3107,0,-3.2442,-3.2539,-3.2565,-3.2647,-3.2695,-3.2709,-3.2756,-3.2798,-3.2823,-3.2868,-3.2896,-3.2945,-3.2936,-3.2956,-3.299,-3.302,-3.306,-3.3016,-3.3077,-3.3079,-3.3062,-3.3136,-3.3138,-3.3199,-3.3116,-3.3117,-3.3119,0,-3.2525,-3.2574,-3.2661,-3.2716,-3.2738,-3.2779,-3.2834,-3.2877,-3.2924,-3.2941,-3.2978,-3.2991,-3.3047,-3.3026,-3.3103,-3.3072,-3.3099,-3.3118,-3.3121,-3.3125,-3.3099,-3.314,-3.3219,-3.3227,-3.3133,-3.3132,-3.3131,0,-3.2553,-3.2641,-3.2705,-3.273,-3.2796,-3.2825,-3.2854,-3.2901,-3.2933,-3.2981,-3.3002,-3.3055,-3.3084,-3.3124,-3.3151,-3.3133,-3.3226,-3.3207,-3.324,-3.3239,-3.3256,-3.3254,-3.3338,-3.3277,-3.3277,-3.3277,-3.3277,0,-3.2617,-3.2669,-3.2718,-3.2757,-3.2817,-3.2847,-3.2904,-3.2933,-3.2975,-3.3019,-3.3035,-3.3076,-3.311,-3.3155,-3.3177,-3.3237,-3.325,-3.3264,-3.3268,-3.3261,-3.3259,-3.3277,-3.3273,-3.3279,-3.3279,-3.3278,-3.3278,0,-3.2657,-3.2693,-3.2763,-3.2821,-3.2837,-3.2878,-3.2928,-3.2966,-3.2993,-3.3049,-3.3064,-3.3107,-3.3162,-3.3193,-3.3262,-3.3276,-3.3343,-3.3346,-3.3327,-3.3328,-3.3359,-3.3355,-3.3455,-3.3469,-3.3401,-3.3402,-3.3402,0,-3.2694,-3.2735,-3.2799,-3.2831,-3.2861,-3.2911,-3.2945,-3.2977,-3.3012,-3.3071,-3.3102,-3.3158,-3.3205,-3.3291,-3.3328,-3.3381,-3.3384,-3.3416,-3.3392,-3.3384,-3.3383,-3.3379,-3.3383,-3.3419,-3.342,-3.342,-3.3421,0,-3.2756,-3.2772,-3.2821,-3.2878,-3.2919,-3.2964,-3.3009,-3.3034,-3.3073,-3.3111,-3.3169,-3.3205,-3.3276,-3.3332,-3.3388,-3.3417,-3.3425,-3.3429,-3.3439,-3.343,-3.3416,-3.3423,-3.3336,-3.3425,-3.3425,-3.3424,-3.3424,-3.3424,-3.2794,-3.2832,-3.2883,-3.2938,-3.2976,-3.3018,-3.3057,-3.3091,-3.3139,-3.3201,-3.3217,-3.3277,-3.3325,-3.3402,-3.3433,-3.348,-3.3474,-3.3489,-3.3492,-3.3495,-3.3495,-3.3412,-3.349,-3.349,-3.349,-3.349,-3.349,0,-3.2855,-3.289,-3.294,-3.3004,-3.3047,-3.3055,-3.3105,-3.314,-3.3193,-3.3239,-3.3285,-3.3351,-3.3406,-3.3448,-3.3504,-3.3533,-3.3538,-3.3546,-3.3543,-3.355,-3.3498,-3.3483,-3.3541,-3.3541,-3.3541,-3.3541,-3.3541,-3.3541,-3.2892,-3.2955,-3.2978,-3.3061,-3.3095,-3.3155,-3.3183,-3.3222,-3.3259,-3.3332,-3.3378,-3.3406,-3.3451,-3.351,-3.3561,-3.3572,-3.359,-3.3598,-3.3609,-3.3559,-3.3553,-3.3548,-3.3534,-3.3602,-3.3602,-3.3657,-3.3657,-3.3658]},{"header":{"parameterUnit":"m.s-1","parameterCategory":1,"la1":30.2991,"la2":30.254,"lo1":-89.0895,"lo2":-89.0444,"dy":0.0017,"dx":0.0017,"nx":28,"ny":28,"refTime":"2024-08-28T21:00:00:Z","depth":0,"parameterNumber":3,"parameterNumberName":"V-component_of_WINDS"},"data":[0,0,0,0,0,0,0,0,0,0,0,0,0,0,0,0,0,0,0,0,0,0,0,0,0,0,0,0,0,0,0,0,0,0,0,0,0,0,0,0,0,0,0,0,0,0,0,0,0,0,0,0,0,0,0,0,0,0,1.6892,1.6891,0,1.6861,1.6861,1.686,1.6806,1.6805,1.6804,1.6803,1.6772,1.6772,1.6772,0,0,0,0,0,0,0,0,0,0,0,0,0,1.6904,1.6904,1.6892,1.6891,1.6891,1.6861,1.6861,1.686,1.6806,1.6805,1.6804,1.6803,1.6772,1.6772,1.6772,0,0,0,0,0,0,0,0,0,0,0,0,0,1.6889,1.6904,1.6892,1.686,1.6857,1.6861,1.6861,1.686,1.6807,1.6805,1.6804,1.6802,1.6772,1.6772,1.6772,1.6804,0,0,1.6773,1.6773,0,0,0,0,0,0,0,0,1.689,1.6888,1.6865,1.6863,1.6859,1.6836,1.6854,1.6841,1.6807,1.6826,1.6803,1.6801,1.6794,1.6793,1.679,1.6802,1.6801,1.6773,1.6773,1.6773,1.6773,0,0,0,0,0,0,0,1.6891,1.6889,1.688,1.6865,1.6861,1.6848,1.6844,1.6851,1.6819,1.6824,1.682,1.6817,1.6792,1.679,1.6789,1.6801,1.6773,1.6773,1.6773,1.6773,1.6838,1.684,0,0,0,0,0,0,1.6897,1.6891,1.688,1.6879,1.6871,1.6849,1.6845,1.6845,1.6819,1.6813,1.6819,1.6815,1.6791,1.6789,1.6788,1.6823,1.6773,1.6773,1.6773,1.6837,1.6839,1.684,0,0,0,0,0,0,1.6897,1.6896,1.6882,1.6884,1.6881,1.6851,1.6851,1.6845,1.6843,1.6815,1.6809,1.6822,1.6789,1.6787,1.68,1.6821,1.6773,1.6773,1.6835,1.6837,1.684,1.6895,0,0,0,0,0,0,1.6898,1.6897,1.6908,1.6884,1.6881,1.6895,1.6852,1.6846,1.6843,1.6838,1.6816,1.6811,1.6788,1.6801,1.6801,1.6821,1.6773,1.6833,1.6836,1.6839,1.6891,1.6899,1.6906,0,0,0,0,0,1.6898,1.6925,1.6909,1.6908,1.6895,1.6896,1.6894,1.6867,1.6845,1.6857,1.6839,1.6812,1.682,1.6802,1.6802,1.6823,1.6831,1.6835,1.6839,1.6888,1.6897,1.6905,0,0,0,0,0,0,1.6951,1.6921,1.6903,1.6923,1.6912,1.6887,1.69,1.6878,1.6873,1.6868,1.6835,1.683,1.6848,1.6837,1.6818,1.6852,1.6821,1.6825,1.6859,1.6868,1.6875,1.6877,1.6773,0,0,0,0,0,1.6966,1.6969,1.6942,1.6962,1.6958,1.6931,1.693,1.691,1.6898,1.6893,1.6876,1.6866,1.6866,1.6866,1.6865,1.689,1.6884,1.6904,1.6911,1.6917,1.6921,1.6933,1.6942,1.6852,1.6852,1.6852,0,0,1.6994,1.6978,1.6982,1.6973,1.6962,1.6967,1.6927,1.6934,1.6937,1.6894,1.6905,1.6893,1.6879,1.6898,1.6906,1.6889,1.6945,1.6922,1.6927,1.6927,1.6938,1.6947,1.6954,1.6855,1.6854,1.6854,0,0,1.7049,1.7038,1.7053,1.7044,1.7029,1.701,1.7014,1.6993,1.6983,1.6994,1.6962,1.6966,1.6966,1.6958,1.6954,1.7007,1.6983,1.7008,1.7046,1.7058,1.7065,1.7072,1.709,1.7098,1.7012,1.7012,1.7012,0,1.7087,1.7092,1.7063,1.7072,1.7069,1.7032,1.7047,1.704,1.7025,1.7024,1.7006,1.7007,1.6995,1.7011,1.7025,1.7023,1.7026,1.7009,1.7067,1.7073,1.7078,1.7095,1.7103,1.7015,1.7015,1.7014,1.7014,0,1.7139,1.7144,1.7158,1.7145,1.7144,1.7156,1.7129,1.7132,1.7112,1.7096,1.7108,1.7093,1.7088,1.7091,1.7072,1.7105,1.7095,1.7073,1.7041,1.709,1.7106,1.7112,1.7019,1.7018,1.7017,1.7017,0,0,1.7224,1.7197,1.7202,1.7196,1.7178,1.7181,1.7192,1.7188,1.719,1.7182,1.719,1.7193,1.7172,1.7167,1.7148,1.7159,1.7203,1.7135,1.7134,1.7147,1.7238,1.7255,1.7263,1.7187,1.7188,1.7189,1.7239,0,1.7274,1.7291,1.7266,1.7289,1.7293,1.7258,1.7268,1.7258,1.7244,1.7246,1.723,1.7232,1.7205,1.7202,1.7212,1.7195,1.722,1.7191,1.7194,1.7194,1.7197,1.7271,1.7288,1.7336,1.7246,1.7247,1.7247,0,1.7334,1.733,1.7352,1.7334,1.7334,1.7343,1.7337,1.734,1.7328,1.7317,1.7313,1.729,1.73,1.727,1.7283,1.7264,1.7264,1.7257,1.7258,1.7256,1.7223,1.7271,1.7351,1.7358,1.7257,1.7256,1.7255,0,1.7394,1.7393,1.7407,1.7403,1.7381,1.7388,1.738,1.7367,1.7366,1.7362,1.7361,1.7357,1.7355,1.7354,1.733,1.7311,1.7347,1.7315,1.7337,1.7338,1.7345,1.7345,1.7426,1.7347,1.7347,1.7347,1.7347,0,1.7451,1.7466,1.7433,1.7441,1.7457,1.743,1.7447,1.7435,1.7424,1.743,1.74,1.7406,1.7376,1.7379,1.7361,1.7375,1.7374,1.7366,1.736,1.7367,1.7369,1.7366,1.7362,1.7349,1.7349,1.7348,1.7348,0,1.7519,1.7497,1.751,1.7489,1.7484,1.7497,1.748,1.7487,1.7471,1.7479,1.7479,1.7455,1.7457,1.7435,1.7432,1.742,1.7442,1.7432,1.7446,1.7442,1.7466,1.7464,1.7547,1.7557,1.7473,1.7474,1.7475,0,1.7557,1.7568,1.7548,1.755,1.7543,1.7546,1.7545,1.7519,1.752,1.7508,1.7517,1.7517,1.7515,1.752,1.7503,1.7501,1.749,1.7519,1.7489,1.7496,1.7489,1.7489,1.7489,1.7525,1.7526,1.7527,1.7528,0,1.7626,1.7615,1.7614,1.7611,1.7611,1.7607,1.7601,1.7604,1.7576,1.7578,1.758,1.7579,1.7577,1.7577,1.7572,1.7564,1.7541,1.7538,1.7543,1.7549,1.7557,1.7553,1.7462,1.7535,1.7535,1.7534,1.7534,1.7533,1.7679,1.7687,1.7675,1.7676,1.7669,1.7665,1.767,1.7656,1.7657,1.7654,1.7638,1.7643,1.7633,1.7624,1.7618,1.7622,1.7607,1.7615,1.7616,1.7618,1.7623,1.7558,1.7621,1.7621,1.762,1.762,1.762,0,1.7746,1.7736,1.7738,1.7731,1.7732,1.7711,1.7704,1.7706,1.7711,1.7703,1.7702,1.7705,1.7706,1.7689,1.7688,1.7694,1.7684,1.7694,1.7693,1.7691,1.7636,1.7631,1.7703,1.7703,1.7703,1.7703,1.7703,1.7703,1.778,1.7793,1.7781,1.7791,1.7782,1.7786,1.7784,1.778,1.7773,1.7778,1.7778,1.7767,1.7756,1.7754,1.7754,1.7749,1.7749,1.7764,1.7755,1.7703,1.7695,1.7687,1.7683,1.7764,1.7764,1.781,1.7811,1.7811]}]]